#timestamp,LO_Frequency,Hit,StdDev 
1579777215.4,286047002.4,N
1579777235.2,286047001.3,N
1579777255.1,286047001.6,N
1579777256.0,286047001.6,N
1579777275.8,286046999.7,N
1579777295.7,286046996.5,N
1579777315.5,286046999.3,N
1579777335.3,286046998.3,N
1579777355.2,286046998.8,N
1579777375.0,286046998.3,N
1579777375.9,286046998.3,N
1579777395.7,286046998.4,N
1579777415.6,286047001.0,N
1579777435.4,286046998.1,N
1579777455.3,286047001.1,N
1579777475.1,286047001.2,N
1579777476.0,286047001.2,N
1579777495.8,286047001.0,N
1579777515.7,286047000.7,N
1579777535.5,286047000.0,N
1579777555.3,286046999.8,N
1579777575.2,286046999.9,N
1579777595.0,286047002.8,N
1579777595.9,286047002.8,N
1579777615.8,286046999.7,N
1579777635.6,286047001.1,N
1579777655.4,286046999.0,N
1579777675.3,286046999.0,N
1579777695.1,286046998.4,N
1579777715.9,286047000.2,N
1579777735.7,286046999.8,N
1579777755.5,286047002.8,N
1579777775.4,286046999.9,N
1579777795.2,286047000.0,N
1579777815.0,286047002.7,N
1579777815.9,286047002.7,N
1579777835.8,286047002.3,N
1579777855.6,286047001.3,N
1579777875.5,286047004.0,N
1579777895.3,286047004.8,Y
1579777915.1,286047003.5,P
1579777935.9,286047001.7,N
1579777955.7,286047001.6,N
1579777975.6,286047002.3,N
1579777995.4,286047002.4,N
1579778015.2,286047000.4,N
1579778035.1,286047001.4,N
1579778036.0,286047001.4,N
1579778055.8,286047003.5,Y
1579778075.6,286047000.5,P
1579778095.5,286046999.1,N
1579778115.3,286046998.4,N
1579778135.2,286047000.1,N
1579778155.9,286047002.3,N
1579778175.7,286047004.3,Y
1579778195.6,286047002.0,P
1579778215.4,286047000.0,N
1579778235.2,286047000.0,N
1579778255.1,286047001.9,N
1579778256.0,286047001.9,N
1579778275.8,286047000.8,N
1579778295.7,286046998.5,N
1579778315.5,286046999.5,N
1579778335.4,286046998.9,N
1579778355.2,286046999.6,N
1579778375.0,286046997.8,N
1579778375.9,286046997.8,N
1579778395.8,286046998.9,N
1579778415.6,286046997.7,N
1579778435.4,286046997.6,N
1579778455.3,286046999.0,N
1579778475.1,286046999.3,N
1579778495.9,286046998.4,N
1579778515.7,286046999.9,N
1579778535.5,286047002.1,N
1579778555.4,286047001.8,N
1579778575.2,286047001.7,N
1579778595.0,286047002.3,N
1579778595.9,286047002.3,N
1579778615.8,286047002.4,N
1579778635.6,286046998.6,N
1579778655.5,286047000.2,N
1579778675.3,286046998.1,N
1579778695.1,286046999.9,N
1579778715.9,286046999.2,N
1579778735.7,286046998.9,N
1579778755.6,286046998.7,N
1579778775.4,286046998.5,N
1579778795.2,286046998.4,N
1579778815.1,286047001.2,N
1579778816.0,286047001.2,N
1579778835.8,286046998.7,N
1579778855.7,286046999.4,N
1579778875.5,286046996.9,N
1579778895.3,286046997.0,N
1579778915.2,286046999.2,N
1579778935.0,286046998.5,N
1579778935.9,286046998.5,N
1579778955.8,286047001.8,N
1579778975.6,286047001.5,N
1579778995.4,286047001.1,N
1579779015.3,286047000.0,N
1579779035.1,286047001.3,N
1579779055.9,286047005.9,Y
1579779075.7,286047004.1,P
1579779095.5,286047002.6,N
1579779115.4,286047000.9,N
1579779135.2,286046999.6,N
1579779155.1,286046999.2,N
1579779156.0,286046999.2,N
1579779175.8,286046999.3,N
1579779195.7,286046999.0,N
1579779215.5,286046999.5,N
1579779235.3,286046999.3,N
1579779255.2,286046997.0,N
1579779275.0,286046997.2,N
1579779275.9,286046997.2,N
1579779295.8,286046996.8,N
1579779315.6,286046997.3,N
1579779335.4,286046997.7,N
1579779355.3,286046999.0,N
1579779375.1,286046999.1,N
1579779395.9,286046999.3,N
1579779415.7,286046998.8,N
1579779435.5,286046999.6,N
1579779455.4,286046997.0,N
1579779475.2,286046997.4,N
1579779495.0,286046996.6,N
1579779495.9,286046996.6,N
1579779515.8,286046997.4,N
1579779535.6,286046999.6,N
1579779555.5,286047000.8,N
1579779575.3,286047002.3,N
1579779595.1,286046999.0,N
1579779615.9,286046998.3,N
1579779635.7,286046998.7,N
1579779655.6,286046996.7,N
1579779675.4,286046998.9,N
1579779695.2,286046996.8,N
1579779715.1,286046997.7,N
1579779716.0,286046997.7,N
1579779735.8,286046999.3,N
1579779755.6,286046999.1,N
1579779775.5,286046996.6,N
1579779795.3,286046999.4,N
1579779815.2,286046998.0,N
1579779835.9,286046997.2,N
1579779855.7,286046998.9,N
1579779875.6,286046999.4,N
1579779895.4,286046999.5,N
1579779915.3,286046996.6,N
1579779935.1,286046997.5,N
1579779936.0,286046997.5,N
1579779955.8,286046997.5,N
1579779975.7,286046996.9,N
1579779995.5,286046996.7,N
1579780015.3,286046997.8,N
1579780035.2,286046997.4,N
1579780055.0,286046996.6,N
1579780055.9,286046996.6,N
1579780075.8,286046998.3,N
1579780095.6,286046998.2,N
1579780115.4,286046998.1,N
1579780135.3,286046998.4,N
1579780155.1,286046998.5,N
1579780175.8,286046998.5,N
1579780195.7,286046997.4,N
1579780215.5,286046996.6,Y
1579780235.4,286047001.1,P
1579780255.2,286046998.3,N
1579780275.0,286046998.4,N
1579780275.9,286046998.4,N
1579780295.8,286047001.2,N
1579780315.6,286047002.4,N
1579780335.5,286047001.6,N
1579780355.3,286047001.8,N
1579780375.1,286047003.9,N
1579780395.9,286047005.9,N
1579780415.9,286047001.5,N
1579780435.7,286047002.3,N
1579780455.6,286047004.3,N
1579780475.4,286047002.3,N
1579780495.2,286047003.3,N
1579780515.1,286047003.3,N
1579780516.0,286047003.3,N
1579780535.8,286047001.4,N
1579780555.7,286047005.0,N
1579780575.5,286047004.5,N
1579780595.3,286047007.4,Y
1579780615.2,286047003.4,P
1579780635.0,286047001.7,N
1579780635.9,286047001.7,N
1579780655.7,286047000.6,N
1579780675.6,286047000.3,N
1579780695.4,286046999.0,N
1579780715.3,286046999.8,N
1579780735.1,286046999.7,N
1579780755.8,286047002.3,N
1579780775.7,286047002.1,N
1579780795.5,286047001.5,N
